[[{"header":{"parameterUnit":"m.s-1","parameterCategory":1,"la1":30.2991,"la2":30.254,"lo1":-89.0895,"lo2":-89.0444,"dy":0.0017,"dx":0.0017,"nx":28,"ny":28,"refTime":"2023-09-09T21:00:00:Z","depth":0,"parameterNumber":2,"parameterNumberName":"U-component_of_WINDS"},"data":[0,0,0,0,0,0,0,0,0,0,0,0,0,0,0,0,0,0,0,0,0,0,0,0,0,0,0,0,0,0,0,0,0,0,0,0,0,0,0,0,0,0,0,0,0,0,0,0,0,0,0,0,0,0,0,0,0,0,0.4509,0.451,0,0.4612,0.4613,0.4614,0.4657,0.4656,0.4656,0.4656,0.4762,0.4765,0.4768,0,0,0,0,0,0,0,0,0,0,0,0,0,0.435,0.4353,0.4509,0.451,0.4512,0.4612,0.4613,0.4615,0.4657,0.4656,0.4656,0.4656,0.4761,0.4765,0.4769,0,0,0,0,0,0,0,0,0,0,0,0,0,0.4432,0.4353,0.4509,0.4545,0.4549,0.4611,0.4613,0.4615,0.4657,0.4656,0.4656,0.4656,0.476,0.4765,0.4769,0.4804,0,0,0.4783,0.4785,0,0,0,0,0,0,0,0,0.4428,0.4438,0.4538,0.4542,0.4547,0.4621,0.4596,0.4678,0.4657,0.4616,0.4656,0.4655,0.4716,0.4724,0.4744,0.4809,0.4814,0.4783,0.4786,0.4788,0.479,0,0,0,0,0,0,0,0.4422,0.4434,0.455,0.4539,0.4545,0.4556,0.4567,0.4612,0.4666,0.4619,0.4623,0.4634,0.4718,0.4739,0.4747,0.4815,0.4783,0.4787,0.479,0.4792,0.4913,0.4914,0,0,0,0,0,0,0.441,0.4429,0.4547,0.4553,0.4485,0.4559,0.4572,0.4598,0.4666,0.4676,0.4634,0.4636,0.4732,0.4741,0.4751,0.4796,0.4788,0.4792,0.4795,0.4913,0.4913,0.4914,0,0,0,0,0,0,0.4407,0.442,0.4542,0.4492,0.4508,0.4562,0.4591,0.46,0.4621,0.4677,0.4687,0.4646,0.4732,0.4744,0.479,0.48,0.4795,0.4799,0.4912,0.4913,0.4914,0.4886,0,0,0,0,0,0,0.4402,0.4419,0.4432,0.4492,0.4511,0.458,0.4592,0.4602,0.4629,0.4632,0.4691,0.4701,0.4733,0.4783,0.4795,0.4806,0.4802,0.4912,0.4913,0.4914,0.4886,0.4886,0.4885,0,0,0,0,0,0.4396,0.4421,0.4433,0.4447,0.4529,0.458,0.4591,0.4627,0.4629,0.4644,0.468,0.4699,0.4797,0.4788,0.4801,0.4814,0.4911,0.4912,0.4913,0.4886,0.4886,0.4885,0,0,0,0,0,0,0.4362,0.443,0.4444,0.4488,0.4528,0.4587,0.4607,0.4626,0.4666,0.4667,0.471,0.4723,0.4766,0.4794,0.4783,0.4851,0.4856,0.4859,0.483,0.483,0.483,0.4822,0.4806,0,0,0,0,0,0.436,0.4396,0.4453,0.4487,0.4506,0.4553,0.4577,0.4601,0.4644,0.4661,0.4701,0.4742,0.4782,0.4808,0.4848,0.489,0.4904,0.4906,0.4905,0.4904,0.4907,0.4931,0.4933,0.4918,0.4918,0.4918,0,0,0.4356,0.4397,0.4417,0.4481,0.4515,0.4551,0.4567,0.4605,0.4632,0.4667,0.4713,0.4743,0.4792,0.4836,0.4857,0.4861,0.4914,0.4906,0.4905,0.4908,0.4933,0.4934,0.4935,0.4918,0.4918,0.4918,0,0,0.4366,0.4401,0.4433,0.4466,0.4517,0.4547,0.4555,0.4611,0.4632,0.4678,0.4705,0.4739,0.4807,0.4841,0.4867,0.4889,0.4908,0.4901,0.4898,0.4921,0.4922,0.4923,0.4931,0.4933,0.4903,0.4903,0.4903,0,0.4355,0.441,0.4447,0.4483,0.451,0.4543,0.4576,0.4606,0.4667,0.4685,0.4689,0.4775,0.481,0.4862,0.4867,0.4888,0.4897,0.4894,0.4919,0.492,0.4922,0.493,0.4932,0.4902,0.4902,0.4902,0.4902,0,0.4393,0.4431,0.4451,0.4508,0.4537,0.4571,0.4614,0.4639,0.466,0.469,0.4737,0.478,0.4829,0.4844,0.4865,0.4899,0.4899,0.491,0.4916,0.4921,0.4929,0.4933,0.49,0.4901,0.4901,0.4901,0,0,0.4386,0.4462,0.4469,0.4495,0.4553,0.4583,0.4618,0.4665,0.4686,0.4727,0.4758,0.4814,0.4824,0.4854,0.4879,0.4899,0.4913,0.4908,0.4909,0.4907,0.4952,0.4944,0.4946,0.4926,0.4927,0.4927,0.4948,0,0.4404,0.4468,0.4502,0.4552,0.4587,0.4618,0.4649,0.4687,0.4716,0.4751,0.4783,0.4822,0.4833,0.485,0.4872,0.4907,0.4923,0.4906,0.4955,0.4956,0.4941,0.4951,0.4942,0.4959,0.4951,0.4952,0.4952,0,0.4434,0.4473,0.4526,0.4579,0.4595,0.4622,0.4667,0.47,0.4744,0.4764,0.4796,0.4821,0.4859,0.4862,0.4915,0.4903,0.4925,0.4945,0.4947,0.4953,0.4954,0.4957,0.4966,0.4968,0.4957,0.4957,0.4957,0,0.4423,0.4489,0.4529,0.455,0.4613,0.4631,0.4658,0.4702,0.4728,0.4768,0.4785,0.483,0.4854,0.4887,0.4924,0.4922,0.4973,0.4979,0.4991,0.499,0.5,0.4999,0.5013,0.5014,0.5014,0.5014,0.5014,0,0.4439,0.447,0.4525,0.4549,0.4585,0.4623,0.4658,0.4687,0.4726,0.4757,0.4787,0.4815,0.4861,0.4896,0.4924,0.4964,0.4975,0.4992,0.4999,0.4989,0.4987,0.5004,0.5004,0.5015,0.5015,0.5015,0.5015,0,0.4433,0.4471,0.4516,0.4571,0.4586,0.4609,0.4657,0.4682,0.4712,0.4751,0.4762,0.481,0.4851,0.4891,0.4947,0.4966,0.5006,0.5015,0.499,0.4994,0.5004,0.5002,0.5029,0.5035,0.5032,0.5032,0.5032,0,0.4441,0.4465,0.4522,0.4545,0.4571,0.4607,0.4633,0.4672,0.4698,0.475,0.4769,0.4813,0.485,0.4915,0.4955,0.4998,0.5009,0.5015,0.5015,0.5004,0.5008,0.5006,0.5009,0.5014,0.5014,0.5014,0.5014,0,0.4451,0.4468,0.4504,0.4547,0.4577,0.4613,0.465,0.4667,0.4713,0.4741,0.4783,0.4812,0.4869,0.4912,0.4959,0.4987,0.5008,0.5013,0.5018,0.5008,0.4993,0.5001,0.4988,0.5013,0.5013,0.5013,0.5013,0.5013,0.4452,0.4474,0.4518,0.4557,0.4589,0.4622,0.4648,0.4681,0.4717,0.4766,0.4787,0.483,0.4873,0.4939,0.4966,0.5001,0.5006,0.5013,0.5015,0.5016,0.5014,0.4987,0.501,0.501,0.501,0.501,0.501,0,0.4462,0.4492,0.4527,0.4577,0.4608,0.4624,0.4666,0.4691,0.4728,0.4766,0.4802,0.4851,0.4892,0.4935,0.4979,0.4999,0.5009,0.5009,0.5008,0.5014,0.5007,0.4998,0.5,0.5,0.5,0.5,0.5,0.5,0.4472,0.4511,0.4533,0.4588,0.4617,0.4659,0.4681,0.4712,0.4743,0.4796,0.483,0.4858,0.4898,0.4945,0.4984,0.4996,0.501,0.5007,0.5021,0.5014,0.5015,0.5015,0.5007,0.501,0.501,0.5026,0.5026,0.5026]},{"header":{"parameterUnit":"m.s-1","parameterCategory":1,"la1":30.2991,"la2":30.254,"lo1":-89.0895,"lo2":-89.0444,"dy":0.0017,"dx":0.0017,"nx":28,"ny":28,"refTime":"2023-09-09T21:00:00:Z","depth":0,"parameterNumber":3,"parameterNumberName":"V-component_of_WINDS"},"data":[0,0,0,0,0,0,0,0,0,0,0,0,0,0,0,0,0,0,0,0,0,0,0,0,0,0,0,0,0,0,0,0,0,0,0,0,0,0,0,0,0,0,0,0,0,0,0,0,0,0,0,0,0,0,0,0,0,0,0.8866,0.8866,0,0.8814,0.8814,0.8813,0.8762,0.8761,0.876,0.876,0.8704,0.8703,0.8702,0,0,0,0,0,0,0,0,0,0,0,0,0,0.8919,0.8918,0.8866,0.8866,0.8865,0.8814,0.8814,0.8813,0.8762,0.8761,0.876,0.8759,0.8704,0.8703,0.8702,0,0,0,0,0,0,0,0,0,0,0,0,0,0.8884,0.8918,0.8866,0.8833,0.883,0.8815,0.8814,0.8813,0.8762,0.8761,0.876,0.8759,0.8704,0.8703,0.8702,0.8714,0,0,0.8698,0.8697,0,0,0,0,0,0,0,0,0.8886,0.8882,0.8839,0.8836,0.8832,0.8793,0.8812,0.878,0.8762,0.8788,0.876,0.8758,0.8734,0.873,0.8723,0.8711,0.8709,0.8698,0.8697,0.8696,0.8696,0,0,0,0,0,0,0,0.8889,0.8884,0.8846,0.8838,0.8834,0.882,0.8814,0.8805,0.8767,0.8785,0.8781,0.8776,0.8732,0.8724,0.8721,0.8708,0.8698,0.8697,0.8696,0.8695,0.8703,0.8704,0,0,0,0,0,0,0.8896,0.8887,0.8847,0.8844,0.8857,0.882,0.8813,0.8807,0.8767,0.876,0.8777,0.8774,0.8727,0.8723,0.8719,0.873,0.8696,0.8695,0.8694,0.8702,0.8703,0.8704,0,0,0,0,0,0,0.8898,0.8893,0.8849,0.8864,0.8858,0.882,0.8813,0.8806,0.8798,0.8761,0.8754,0.8776,0.8726,0.8721,0.8716,0.8727,0.8695,0.8693,0.8701,0.8703,0.8704,0.8752,0,0,0,0,0,0,0.89,0.8894,0.8899,0.8865,0.8857,0.8848,0.8814,0.8806,0.8796,0.8792,0.8758,0.8751,0.8725,0.8718,0.8714,0.8725,0.8692,0.87,0.8702,0.8703,0.8749,0.8755,0.876,0,0,0,0,0,0.8902,0.8914,0.89,0.8895,0.8862,0.8849,0.8844,0.8814,0.8798,0.8802,0.8778,0.8753,0.8727,0.8718,0.8713,0.8723,0.8699,0.8701,0.8703,0.8747,0.8754,0.876,0,0,0,0,0,0,0.895,0.8909,0.8892,0.8895,0.8876,0.884,0.8844,0.8822,0.8807,0.8803,0.8765,0.8758,0.8757,0.874,0.873,0.8733,0.8709,0.8711,0.8744,0.875,0.8756,0.8759,0.8691,0,0,0,0,0,0.8961,0.8954,0.8919,0.8924,0.8915,0.8882,0.8874,0.8853,0.8831,0.8823,0.8798,0.8777,0.8764,0.8757,0.8743,0.8747,0.8738,0.8752,0.8757,0.8762,0.8763,0.8763,0.8768,0.8712,0.8712,0.8712,0,0,0.8983,0.896,0.8958,0.8933,0.8916,0.8908,0.8875,0.8869,0.8863,0.8821,0.8815,0.8796,0.8771,0.877,0.8769,0.8756,0.8777,0.8765,0.8769,0.8767,0.8766,0.8771,0.8776,0.8713,0.8713,0.8713,0,0,0.902,0.9003,0.9005,0.8989,0.8963,0.8941,0.8941,0.8909,0.8895,0.8889,0.8857,0.8849,0.8828,0.8811,0.8799,0.883,0.8806,0.8827,0.8854,0.8854,0.8859,0.8863,0.8872,0.8877,0.8828,0.8828,0.8829,0,0.9051,0.9039,0.9009,0.9004,0.8994,0.8957,0.8958,0.8944,0.8915,0.8908,0.8894,0.8867,0.8847,0.8841,0.8849,0.8841,0.884,0.883,0.8861,0.8864,0.8867,0.8876,0.888,0.8831,0.8831,0.8831,0.883,0,0.9078,0.9071,0.9075,0.9049,0.9039,0.9038,0.9006,0.8999,0.8979,0.8958,0.8951,0.8926,0.8906,0.8903,0.8883,0.8895,0.8887,0.8868,0.8843,0.8876,0.8883,0.8887,0.8835,0.8834,0.8833,0.8832,0,0,0.9142,0.91,0.9102,0.9089,0.9059,0.9052,0.9049,0.903,0.9025,0.9007,0.9002,0.8985,0.8967,0.8954,0.8931,0.8932,0.8957,0.8912,0.8911,0.892,0.8967,0.8981,0.8985,0.8941,0.8942,0.8942,0.8968,0,0.9173,0.9166,0.9138,0.9138,0.913,0.9096,0.9093,0.9073,0.9054,0.9043,0.9021,0.901,0.8987,0.8979,0.8978,0.8954,0.8965,0.8952,0.8935,0.8935,0.8941,0.8989,0.9004,0.903,0.8971,0.8972,0.8972,0,0.9207,0.9192,0.9192,0.9162,0.9157,0.9155,0.9136,0.9127,0.9104,0.9089,0.9075,0.905,0.9044,0.9022,0.9012,0.9003,0.8995,0.8982,0.8982,0.8978,0.8955,0.8985,0.9038,0.9041,0.8977,0.8977,0.8976,0,0.9253,0.9232,0.9229,0.922,0.9185,0.9184,0.9169,0.9145,0.9136,0.9119,0.9112,0.9094,0.9084,0.907,0.9041,0.9028,0.9033,0.9009,0.902,0.9021,0.9021,0.9021,0.9072,0.9019,0.9019,0.9019,0.9019,0,0.9289,0.929,0.9249,0.9247,0.9247,0.9215,0.9215,0.9197,0.9176,0.917,0.9139,0.9133,0.9095,0.9085,0.9062,0.9056,0.9052,0.9039,0.9032,0.9041,0.9042,0.9034,0.9031,0.902,0.9019,0.9019,0.9019,0,0.9339,0.9312,0.9306,0.9274,0.9266,0.9267,0.9239,0.9235,0.9214,0.9206,0.9202,0.9168,0.9154,0.9124,0.9102,0.9086,0.9086,0.9075,0.9094,0.9089,0.9101,0.91,0.9146,0.915,0.9096,0.9097,0.9097,0,0.9363,0.9363,0.9331,0.9325,0.9311,0.9302,0.9292,0.9261,0.9252,0.9226,0.9225,0.9209,0.9194,0.9173,0.9146,0.9129,0.9116,0.9134,0.9113,0.9122,0.9115,0.9115,0.9114,0.9138,0.9139,0.9139,0.914,0,0.9408,0.9395,0.9383,0.9366,0.9356,0.9341,0.9324,0.9321,0.9285,0.9277,0.9263,0.9251,0.9229,0.9213,0.9191,0.9174,0.9151,0.9147,0.9148,0.9156,0.9166,0.9159,0.9104,0.9145,0.9145,0.9144,0.9144,0.9144,0.9445,0.9443,0.942,0.9408,0.9392,0.9377,0.9372,0.9351,0.9339,0.9319,0.9301,0.9288,0.9265,0.9234,0.9219,0.9208,0.9196,0.9198,0.9198,0.9199,0.9202,0.9169,0.9204,0.9204,0.9203,0.9203,0.9203,0,0.9487,0.9471,0.946,0.9438,0.9428,0.9409,0.9389,0.9382,0.9371,0.9352,0.9338,0.9322,0.9306,0.9278,0.926,0.9256,0.9245,0.9252,0.9251,0.9248,0.9214,0.9214,0.9262,0.9262,0.9262,0.9262,0.9262,0.9262,0.9508,0.9503,0.9488,0.9475,0.9459,0.9447,0.9437,0.9423,0.9407,0.9391,0.9378,0.9361,0.9337,0.9317,0.9301,0.9294,0.9287,0.9298,0.9287,0.9256,0.925,0.9245,0.9245,0.9298,0.9298,0.9321,0.9321,0.9321]}]]